TimeHST,TemperatureF,Dew PointF,Humidity,Sea Level PressureIn,VisibilityMPH,Wind Direction,Wind SpeedMPH,Gust SpeedMPH,PrecipitationIn,Events,Conditions,WindDirDegrees,DateUTC
12:53 AM,70.0,57.0,63,30.22,10.0,ENE,17.3,-,N/A,,Partly Cloudy,60,2013-03-03 10:53:00
1:53 AM,70.0,55.0,59,30.19,10.0,ENE,20.7,-,N/A,,Mostly Cloudy,60,2013-03-03 11:53:00
2:53 AM,70.0,57.9,65,30.17,10.0,ENE,17.3,-,N/A,,Overcast,60,2013-03-03 12:53:00
3:53 AM,70.0,51.1,51,30.16,10.0,NE,12.7,23.0,N/A,,Mostly Cloudy,50,2013-03-03 13:53:00
4:53 AM,70.0,55.0,59,30.15,10.0,ENE,20.7,28.8,N/A,,Mostly Cloudy,60,2013-03-03 14:53:00
5:53 AM,70.0,57.9,65,30.16,10.0,ENE,23.0,28.8,N/A,,Overcast,60,2013-03-03 15:53:00
6:53 AM,70.0,55.0,59,30.18,10.0,East,20.7,28.8,N/A,,Overcast,80,2013-03-03 16:53:00
7:53 AM,70.0,53.1,55,30.20,10.0,ENE,21.9,27.6,N/A,,Overcast,70,2013-03-03 17:53:00
8:53 AM,71.1,54.0,55,30.22,10.0,ENE,21.9,-,N/A,,Overcast,70,2013-03-03 18:53:00
9:53 AM,71.1,54.0,55,30.22,10.0,ENE,17.3,25.3,N/A,,Overcast,70,2013-03-03 19:53:00
10:53 AM,72.0,55.9,57,30.22,10.0,East,20.7,-,N/A,,Overcast,80,2013-03-03 20:53:00
11:53 AM,73.0,55.0,53,30.22,10.0,ENE,18.4,-,N/A,,Overcast,60,2013-03-03 21:53:00
12:53 PM,73.0,55.0,53,30.19,10.0,ENE,18.4,-,N/A,,Overcast,60,2013-03-03 22:53:00
1:53 PM,73.9,57.9,57,30.17,10.0,NE,13.8,-,N/A,,Overcast,40,2013-03-03 23:53:00
2:53 PM,73.0,57.9,59,30.17,10.0,ENE,12.7,-,N/A,,Overcast,60,2013-03-04 00:53:00
3:53 PM,73.0,59.0,61,30.16,10.0,ENE,10.4,-,0.00,,Overcast,60,2013-03-04 01:53:00
4:53 PM,71.1,61.0,70,30.16,10.0,ENE,20.7,28.8,N/A,,Overcast,60,2013-03-04 02:53:00
5:53 PM,70.0,61.0,73,30.17,10.0,NE,12.7,-,0.00,,Scattered Clouds,40,2013-03-04 03:53:00
6:53 PM,69.1,61.0,75,30.18,10.0,ENE,15.0,-,0.00,,Mostly Cloudy,60,2013-03-04 04:53:00
7:53 PM,69.1,61.0,75,30.19,10.0,ENE,17.3,-,N/A,,Mostly Cloudy,60,2013-03-04 05:53:00
8:53 PM,70.0,59.0,68,30.20,10.0,NE,16.1,-,N/A,,Scattered Clouds,50,2013-03-04 06:53:00
9:53 PM,70.0,57.9,65,30.21,10.0,ENE,17.3,-,N/A,,Overcast,60,2013-03-04 07:53:00
10:53 PM,70.0,55.9,61,30.21,10.0,NE,18.4,-,N/A,,Mostly Cloudy,40,2013-03-04 08:53:00
11:53 PM,69.1,55.0,61,30.21,10.0,ENE,16.1,25.3,N/A,,Scattered Clouds,60,2013-03-04 09:53:00